Weather in Shirokiy Buyerak

Russia / Saratov Oblast     52°07′00″N   47°46′00″E
temp.,
°C
wind,
m/s
gust,
m/s
humid.,
%
clouds,
%
prec.,
mm/h
press.,
hPa
HPBL,
m
26 february, fri
fri2601:00−10ssw4995100 0.6 1016310
04:00−10s2496100 1.1 1015115
07:00−12wsw119795 0.1 101421
10:00−10n119392 0.1 101441
13:00−7e219080 0.0 1014207
16:00−6se239590 0.2 1013231
19:00−3se4897100 1.5 1010274
22:00+2sw513100100 3.8 1006340
27 february, sat
sat2701:00+2wsw71499100 0.4 1003438
04:00+2wsw61398100 0.5 1003438
07:000wsw5129178 0.0 1002289
10:000wsw5109566 0.0 1003538
13:00+1wsw61299100 0.0 1002571
16:00+1wsw611100100 0.1 1002488
19:00+1wsw6119698 0.0 1001536
22:00−1wnw7109799 0.2 1001521
28 february, sun
sun2801:00−10wnw5128775 0.2 1002372
04:00−10nw6128971 0.2 1004475
07:00−12nw5118996 0.1 1006445
10:00−11nw598995 0.1 1008522
13:00−10nw5788100 0.1 1010584
16:00−9nnw4786100 0.2 1011708
19:00−12nnw3490100 0.0 101367
22:00−14nnw369197 0.1 1016123
1 march, mon
mon101:00−15nnw369181 0.0 1017136
04:00−17nnw369171 0.0 101998
07:00−19nnw34910 0.0 102177
10:00−17n35890 0.0 1023213
13:00−15n34865 0.0 1025322
16:00−13n248720 0.0 1026330
19:00−16nnw22890 0.0 102720
22:00−17wnw11910 0.0 102920
2 march, tue
tue201:00−17wsw22920 0.0 102820
04:00−18wsw23920 0.0 102825
07:00−18wsw34938 0.0 102648
10:00−15sw579043 0.0 1023247
13:00−10sw61192100 0.0 1020397
16:00−5sw81395100 0.4 1016637
19:00−4sw71394100 0.9 1013594
22:00−2sw61296100 2.1 1010478